Dewpoint
27 25 24 24 24 35 54 52 40 47 55 55 56 56 55 55 56 58 59 60 62 59 58 58 58 58 59 61 61 61 61 58 57 56 56 56 53 52 54 57 58 59 60 61 62 63 64 65 66 67 68 68 68 68 69 68 68 68 69 70 70 70 71 71 70 70 69 69 69 69 68 69 69 70 71 72 72 73 73 75 76 77 77 77 77 76
24 26 23 24 26 25 27 26 26 25 49 52 55 55 54 54 54 57 58 60 61 58 57 59 57 58 59 60 61 62 60 56 56 56 55 55 53 52 54 56 57 58 60 61 62 63 64 64 66 67 67 68 67 67 68 68 68 68 68 69 69 70 70 70 70 70 70 69 69 68 69 68 69 71 72 71 72 72 73 75 76 77 76 77 77 78
18 17 18 21 24 27 28 24 24 22 38 54 52 54 54 55 58 59 59 59 59 59 57 58 56 57 59 60 61 60 59 58 60 56 55 54 52 52 54 56 57 58 58 59 60 62 63 64 65 66 67 67 66 67 67 67 68 68 68 69 70 70 70 70 70 70 70 70 70 69 69 69 69 70 71 71 73 74 73 75 75 77 76 76 77 78
15 13 14 16 21 22 24 24 24 50 53 52 54 52 51 55 54 52 57 59 59 58 56 57 57 57 60 61 60 61 63 62 62 62 61 55 52 51 53 55 57 57 58 59 60 61 63 64 65 65 66 66 66 67 67 67 67 67 69 69 70 70 70 70 71 72 70 70 70 70 70 71 71 71 73 73 74 73 74 74 75 76 76 76 76 77
11 13 16 18 20 19 17 20 33 47 44 52 53 53 54 55 56 55 56 58 58 59 58 57 55 55 57 57 58 61 62 61 61 61 61 61 54 53 54 55 57 56 58 59 60 61 62 63 64 65 66 65 65 66 66 66 67 67 68 69 70 71 70 70 73 72 72 73 72 73 73 74 72 72 72 72 72 73 74 74 74 74 76 76 76 77
14 14 13 12 12 18 17 16 35 43 42 49 53 53 55 57 56 57 57 56 55 54 58 56 49 50 55 57 57 59 60 60 60 59 59 59 54 53 52 54 56 57 58 59 60 61 62 62 64 64 65 65 65 65 66 66 67 67 68 70 71 71 71 71 73 72 73 72 71 71 70 70 69 69 70 70 70 71 72 73 74 74 75 76 76 76
19 18 14 14 12 15 16 14 24 44 42 46 49 54 57 56 57 57 56 55 51 50 55 58 50 47 55 55 56 58 58 58 59 58 59 58 55 52 52 54 55 56 58 59 60 61 61 62 63 63 64 64 64 65 66 66 67 68 69 70 71 71 71 73 73 73 73 71 71 70 69 69 69 69 69 71 71 72 72 74 74 74 75 76 75 76
14 12 9 13 13 12 14 13 21 45 46 46 52 57 57 56 56 55 55 55 54 56 56 56 55 48 48 54 57 58 57 57 57 58 58 59 56 53 52 53 54 55 57 59 60 60 61 62 62 63 64 64 64 65 65 66 67 68 69 70 71 71 73 73 73 73 72 71 71 70 70 70 69 69 69 70 71 72 74 74 74 74 74 75 76 75
14 21 20 14 13 12 11 13 17 45 43 46 56 57 56 56 56 56 55 54 54 53 50 54 57 50 48 54 57 58 56 56 56 57 58 58 58 54 52 52 53 55 58 59 59 60 61 62 62 63 63 63 64 65 65 66 67 68 69 71 71 71 73 73 73 72 72 72 71 70 70 70 70 70 70 71 74 73 75 73 74 74 74 74 75 76
22 21 22 16 8 8 11 13 41 50 52 56 56 56 56 56 56 56 54 53 52 50 47 51 55 48 47 54 55 57 56 55 55 56 57 58 59 56 53 52 53 55 58 59 60 60 61 62 62 63 63 63 64 65 66 66 67 68 70 70 71 71 72 73 73 72 71 72 72 70 70 70 70 71 72 72 72 73 74 73 73 73 73 73 74 75
21 42 36 11 8 8 26 50 50 53 56 56 55 53 52 52 52 54 52 52 49 46 47 52 54 52 45 52 54 54 54 56 55 56 57 58 59 59 55 52 53 55 58 59 59 60 61 62 62 62 63 63 64 65 66 67 68 69 69 70 70 71 72 73 73 72 71 71 71 70 70 70 70 71 72 71 72 72 73 73 72 73 73 73 74 75
21 20 33 31 37 47 56 54 56 56 55 53 52 51 49 48 51 49 46 48 42 41 47 50 52 54 45 49 55 57 60 59 57 55 56 57 58 59 59 54 52 54 58 59 59 60 61 62 62 62 63 63 64 65 66 67 68 69 69 70 70 71 72 72 72 72 71 71 71 70 71 70 71 71 71 71 71 72 72 72 72 73 73 73 74 75
18 17 18 24 51 55 54 53 53 53 52 51 49 45 42 37 41 39 42 42 40 39 48 52 53 49 49 52 57 57 58 58 59 56 56 57 57 58 60 57 53 53 57 59 59 60 61 61 61 62 63 64 65 65 66 67 68 69 69 70 70 71 72 72 72 72 71 72 71 70 71 71 71 72 72 72 71 72 72 72 72 73 73 73 73 74
18 20 25 36 52 50 53 52 51 50 51 48 45 43 40 35 34 33 37 40 38 44 54 52 53 48 52 55 56 58 59 58 60 61 62 58 58 58 60 59 54 52 55 58 59 60 61 61 61 62 63 64 65 65 66 67 68 69 69 70 70 71 72 72 72 72 72 72 72 71 71 71 72 72 72 72 71 72 72 72 72 72 72 73 73 74
18 16 18 21 18 42 48 52 52 50 50 47 46 42 39 40 36 33 35 35 38 43 50 54 48 46 47 51 60 56 57 59 61 62 63 61 59 58 60 61 56 52 54 58 59 60 60 61 62 62 62 63 64 65 66 67 68 69 69 70 70 71 72 72 72 72 72 72 72 72 72 72 72 72 73 72 72 72 72 72 72 73 73 73 73 74
19 18 19 23 21 23 43 50 52 50 49 47 45 42 40 38 41 35 39 39 43 45 46 48 47 50 50 58 62 63 58 59 61 62 62 60 58 59 60 61 59 53 53 56 59 60 60 61 62 62 63 63 64 65 66 67 68 68 69 70 70 70 72 72 72 72 72 72 73 73 72 72 74 74 73 73 74 73 73 73 73 73 73 74 74 74
28 20 20 23 27 21 23 51 51 49 42 45 42 40 40 43 47 44 45 46 45 40 41 47 48 51 57 57 59 60 59 58 61 62 61 59 57 58 59 60 60 56 53 55 58 60 60 61 62 62 63 63 64 65 65 67 68 68 69 69 70 70 72 72 72 72 72 72 73 73 72 72 74 74 73 72 73 73 74 73 73 73 73 74 74 74
21 19 22 24 23 25 25 50 50 47 50 46 43 43 43 46 46 42 37 39 37 34 37 46 46 47 44 45 59 58 58 59 59 59 59 58 57 57 58 60 61 58 54 54 57 60 60 61 62 62 63 63 64 64 65 67 68 68 69 69 69 70 71 72 72 72 72 72 72 73 73 73 73 73 73 73 73 74 74 74 74 74 74 74 74 74
22 21 22 24 25 26 26 49 49 50 43 50 50 50 44 39 36 39 40 35 35 34 35 41 46 47 48 48 55 57 57 58 59 60 58 57 57 57 58 59 60 60 56 55 56 59 60 61 62 62 63 63 64 65 65 66 68 68 69 69 69 69 70 71 72 72 73 73 72 73 73 72 73 74 74 74 74 75 75 74 74 74 74 74 75 75
28 20 23 25 26 27 24 42 45 35 28 32 40 46 47 46 39 38 37 41 38 35 34 33 42 39 49 49 55 55 57 58 57 59 59 58 57 57 57 59 60 61 59 56 55 57 59 60 61 62 63 63 64 64 65 66 67 68 69 69 69 70 70 71 72 73 73 73 73 73 73 73 73 74 74 74 74 74 74 74 74 74 74 74 75 75
27 27 26 27 28 25 24 25 25 27 24 25 24 35 39 36 47 41 41 37 34 34 33 34 34 41 46 51 56 56 58 59 58 58 58 58 58 58 57 58 60 60 60 58 56 56 58 60 61 62 63 63 64 65 65 66 66 67 68 69 70 70 70 70 71 72 73 73 73 73 73 73 73 73 74 73 73 74 74 74 75 73 74 75 74 74
27 29 28 34 26 27 23 25 26 29 25 26 22 34 31 29 30 31 32 38 41 35 32 33 33 42 48 59 58 56 58 59 58 56 56 57 57 59 59 59 60 60 61 59 56 56 57 59 61 62 63 63 64 64 65 66 67 67 68 68 69 69 70 70 71 72 73 73 73 73 73 73 73 73 74 73 73 73 73 73 74 74 74 73 74 74
29 32 30 28 27 27 27 29 33 33 30 24 41 43 39 32 36 34 28 32 40 41 43 38 35 37 54 60 60 58 61 60 58 56 56 58 58 59 60 60 60 60 61 61 58 57 57 58 60 61 63 63 64 64 65 66 67 67 68 69 69 70 70 71 71 72 73 73 73 73 73 73 73 73 73 73 73 72 72 72 73 74 73 73 73 73
57 32 29 33 37 39 34 34 36 35 35 35 34 39 48 48 49 38 33 35 38 40 38 37 36 39 50 60 60 60 61 64 62 56 56 58 59 60 62 63 63 62 62 63 61 60 59 59 60 62 63 63 64 64 65 67 68 68 69 69 70 70 70 71 71 72 72 73 73 73 73 73 73 73 73 73 73 72 72 72 72 73 72 72 72 72
23 29 30 30 33 34 30 32 33 37 37 34 33 43 49 50 50 47 37 40 38 40 39 35 32 36 50 60 60 60 60 63 63 64 62 62 62 63 63 64 64 64 64 64 63 63 63 62 62 63 63 63 64 64 66 67 68 68 69 70 69 70 71 71 72 72 72 72 73 73 73 73 73 73 73 73 73 72 72 72 72 72 72 72 71 72
31 33 33 28 27 23 24 27 31 37 39 37 41 49 50 50 51 47 29 37 31 38 39 35 35 43 55 58 59 60 60 61 63 64 62 61 61 62 64 65 65 64 64 64 64 64 63 63 63 64 64 65 65 66 67 68 68 69 69 70 70 70 71 72 72 72 72 72 72 73 73 73 72 73 73 73 73 73 72 72 71 71 71 72 71 72
35 40 37 34 31 27 30 37 39 41 41 45 47 48 49 51 52 41 37 35 30 36 38 39 40 52 55 57 58 59 60 60 61 63 61 62 63 63 63 65 65 65 65 65 65 64 64 64 63 64 65 65 66 67 67 68 69 69 70 70 71 71 72 72 72 72 72 72 72 72 72 72 72 72 73 73 73 73 73 72 71 70 70 71 71 71
37 32 36 37 36 32 34 37 36 46 45 47 47 47 49 50 52 51 42 36 45 33 29 40 49 53 54 56 57 59 59 61 62 63 63 62 63 63 64 65 66 65 65 65 65 65 64 64 65 66 66 66 67 67 68 68 69 69 69 70 70 71 72 72 72 72 72 72 71 71 72 72 72 73 73 73 73 73 73 72 71 71 71 71 70 70
33 31 33 37 35 38 36 37 40 47 47 46 46 47 49 50 52 51 52 53 50 32 28 45 52 53 55 57 58 59 60 60 61 63 64 64 64 63 63 64 64 65 65 65 65 65 65 65 65 66 67 67 67 67 68 68 69 70 70 70 71 71 71 72 72 72 72 72 71 71 72 72 72 72 72 73 73 72 72 72 71 71 71 71 70 69
30 30 32 38 38 39 40 41 42 45 46 45 45 47 49 50 51 52 52 54 51 52 52 54 55 55 57 58 59 60 61 62 63 64 64 64 64 64 63 63 64 65 65 65 65 65 65 66 66 67 67 67 67 68 68 68 69 69 70 70 71 71 72 72 72 71 71 71 72 72 72 71 72 72 72 72 72 72 72 71 71 71 70 70 70 70
25 27 41 37 35 35 36 42 41 44 43 42 44 47 49 49 51 52 52 53 54 54 54 55 55 55 59 60 60 62 62 62 63 63 63 64 65 65 63 63 64 65 65 65 65 65 66 66 67 67 67 67 67 68 68 68 69 69 70 70 71 71 71 72 71 71 71 71 71 71 71 71 71 71 71 71 71 72 72 72 71 71 71 72 72 73
30 26 37 35 29 29 34 39 41 42 42 41 42 44 47 48 48 51 51 53 53 52 54 55 54 54 58 61 61 61 61 61 61 62 62 63 64 64 64 64 65 65 66 66 66 66 66 66 66 67 67 67 68 68 68 68 69 69 69 70 70 71 71 71 70 70 70 70 70 70 70 71 70 70 70 71 71 71 72 72 72 71 71 72 72 73
31 31 30 30 25 27 33 41 44 42 35 33 37 43 46 47 49 51 53 54 53 53 53 51 52 56 60 61 59 59 60 60 60 61 62 63 64 64 64 65 65 66 66 66 66 66 66 66 67 67 67 67 67 68 68 69 69 68 69 69 70 70 69 70 70 69 68 69 70 70 70 70 70 70 70 71 71 71 72 73 73 72 72 72 73 73
39 32 31 33 22 25 32 38 40 34 29 31 41 47 51 49 49 50 51 53 54 54 54 54 54 56 58 58 58 58 59 59 61 62 63 63 64 64 64 64 64 64 65 65 66 65 65 66 66 67 67 67 68 68 68 69 69 69 69 69 69 69 68 68 68 68 68 69 69 69 69 69 70 70 70 70 71 71 71 72 72 72 71 70 68 69
42 37 35 34 27 26 33 36 32 27 32 42 46 50 53 53 53 53 53 53 54 54 54 53 54 55 56 57 57 58 59 61 62 62 63 64 64 63 63 63 63 62 62 62 63 63 64 64 65 65 66 67 68 68 68 68 68 68 68 68 68 68 68 68 68 68 68 69 69 69 69 69 70 70 70 70 70 71 70 70 70 69 69 69 69 69
35 36 38 36 32 29 30 29 21 25 36 42 44 50 52 51 50 49 48 51 54 54 54 54 55 55 56 57 58 60 59 60 61 62 62 62 63 63 63 62 62 62 61 62 62 63 63 63 64 64 64 67 68 68 68 68 68 68 68 68 67 67 67 67 67 67 67 67 68 68 68 69 69 69 69 69 69 69 68 67 68 68 69 69 69 70
35 37 34 29 34 26 26 28 25 35 38 41 43 44 49 46 45 46 43 44 50 54 54 54 55 57 57 58 59 59 60 61 59 59 62 62 62 62 62 62 62 62 62 62 62 62 63 63 63 63 64 64 64 65 65 66 67 66 66 66 66 66 65 65 65 65 66 66 67 67 67 67 67 68 68 68 68 68 68 68 68 68 69 68 68 69
33 29 32 28 29 35 32 31 30 31 30 36 42 46 49 49 48 47 47 45 47 53 55 55 55 57 57 57 58 58 58 57 55 56 60 62 62 62 62 62 62 62 62 62 62 62 63 63 64 64 63 63 63 64 64 65 64 64 64 64 64 64 64 64 64 64 65 65 65 66 67 67 67 67 67 67 67 67 67 68 68 68 69 67 67 68
38 36 32 26 29 33 31 28 28 29 33 40 41 44 48 49 49 46 40 37 43 53 56 56 56 57 57 57 57 56 55 54 53 57 60 61 61 61 61 61 61 61 61 61 60 60 61 62 62 62 62 62 61 62 64 64 63 63 62 63 63 63 63 63 63 63 64 64 64 65 65 66 66 67 67 67 67 68 68 68 68 68 68 68 68 67
38 37 34 33 33 34 31 29 28 32 33 40 43 45 47 49 45 39 33 35 43 53 56 57 57 57 57 56 56 54 54 53 54 58 61 61 62 62 61 60 60 60 60 61 61 61 61 61 60 60 60 60 60 61 61 62 62 62 61 61 62 61 61 61 62 63 63 63 63 64 65 66 66 66 67 67 67 67 67 67 67 67 67 67 67 67
34 35 34 30 34 37 35 29 31 32 39 43 45 46 48 50 42 35 32 37 45 54 56 57 57 57 57 56 55 52 53 56 59 61 61 61 60 60 60 60 60 60 59 59 59 60 59 59 58 57 58 58 59 59 61 61 60 60 60 60 59 59 60 60 61 60 60 60 61 62 63 64 64 65 65 66 65 65 66 66 67 66 66 66 66 65
30 35 36 36 33 33 33 30 30 32 36 42 45 48 50 42 36 35 40 45 52 54 55 57 57 57 57 56 55 54 58 61 61 61 60 60 59 57 57 58 59 59 59 60 58 56 55 55 55 55 55 56 56 56 56 57 58 58 58 57 57 58 60 60 60 58 57 57 56 57 58 60 62 63 63 64 63 63 64 65 66 66 66 65 64 63
30 30 29 31 34 34 31 31 28 22 35 45 46 46 47 40 39 42 49 53 55 55 56 56 56 57 56 56 58 60 60 60 60 59 59 58 56 56 56 56 56 57 57 57 56 57 55 55 55 56 56 56 56 56 55 54 55 56 56 56 58 59 60 60 59 58 57 56 56 57 56 57 58 59 61 62 63 63 63 64 65 65 65 63 62 61
36 27 28 32 36 30 30 29 28 33 41 45 44 40 44 47 47 48 53 52 54 55 56 55 55 56 56 58 59 60 59 59 59 59 58 58 57 56 54 54 54 54 54 54 55 56 57 57 56 56 56 56 57 57 57 57 57 58 58 57 58 59 60 60 58 57 56 57 56 56 58 58 58 59 59 60 61 62 61 63 64 65 65 63 62 60
35 31 34 29 36 35 33 35 37 41 44 46 47 46 47 50 53 53 55 54 54 55 56 55 56 56 58 59 59 59 59 59 58 58 58 57 56 54 53 52 53 54 55 56 56 57 56 55 55 55 56 56 56 57 57 57 57 57 57 58 60 60 59 59 58 56 56 57 57 57 57 57 57 58 58 58 59 60 61 61 62 62 62 63 61 61
39 39 41 42 39 42 42 42 45 47 48 50 51 51 52 53 54 56 56 55 55 56 57 57 57 57 58 59 59 58 58 58 57 57 57 57 56 55 54 53 54 55 55 56 56 57 56 55 55 55 55 55 55 56 58 56 56 57 58 59 60 59 60 58 57 56 55 56 56 56 55 53 53 53 53 54 54 56 57 58 61 61 61 62 62 62
41 44 41 39 41 37 37 43 47 47 49 50 51 52 52 52 53 54 54 55 56 57 57 57 58 58 58 58 58 58 57 57 57 57 57 57 55 53 52 53 53 54 55 55 57 57 55 55 55 55 55 55 55 56 57 57 57 57 58 58 58 59 60 58 57 58 56 57 57 56 55 54 53 53 54 52 51 51 53 55 55 57 58 58 59 62
38 44 41 41 39 37 38 43 46 49 50 51 51 52 52 53 54 54 54 56 57 58 57 57 57 57 58 57 58 58 57 57 56 56 56 56 55 54 53 53 53 54 54 55 56 56 55 55 54 55 55 55 55 56 56 56 55 56 56 57 58 59 61 61 59 55 55 57 59 60 60 60 60 55 52 52 50 49 49 51 52 52 54 53 53 57
40 44 36 41 40 41 43 45 47 49 49 50 52 53 54 55 55 54 54 55 56 57 57 57 57 56 57 57 57 58 57 57 56 56 56 55 55 54 53 53 53 53 53 54 55 55 54 55 55 55 55 55 55 55 55 55 55 55 56 57 58 58 59 60 60 58 54 55 55 57 58 54 54 53 52 51 51 51 51 51 52 53 53 53 52 53
42 38 41 43 41 40 42 44 47 42 42 47 50 52 53 54 55 54 55 55 56 55 56 57 56 57 56 56 57 58 58 57 56 56 56 55 55 54 53 54 53 53 54 55 55 55 56 56 55 55 55 54 55 55 55 55 55 55 55 56 56 56 57 58 58 55 56 55 54 53 53 54 52 53 53 51 50 50 51 51 46 49 51 51 51 46
40 40 41 40 40 39 43 45 47 45 46 49 51 53 54 55 55 54 55 55 55 56 56 56 56 56 56 56 58 58 57 57 56 56 56 55 54 54 54 54 53 53 54 55 54 54 55 56 56 55 55 56 57 56 55 55 54 54 55 55 56 55 55 56 56 55 55 58 58 58 57 54 51 52 51 50 51 52 52 49 50 42 43 50 49 43